Theta_e
301 301 301 303 303 304 304 303 303 303 304 304 304 302 303 305 306 303 303 302 302 303 304 305 305 306 308 314 317 319 319 319 320 320 319 318 317 316 315 316 316 318 319 322 327
301 301 302 303 303 304 304 304 304 304 304 304 304 303 302 304 306 304 302 302 302 302 304 308 308 307 310 313 316 318 319 318 318 318 317 317 314 314 313 314 314 314 315 315 314
301 302 303 304 304 304 304 304 303 304 304 304 304 303 303 303 309 304 301 302 301 302 303 305 306 307 310 312 314 317 318 316 314 314 313 313 313 312 312 314 314 314 313 313 311
302 303 303 305 305 305 305 305 304 304 304 304 304 303 303 304 314 302 302 302 302 301 302 307 308 309 311 312 312 313 315 314 314 311 311 312 311 311 311 311 312 309 309 309 308
304 305 306 307 308 307 306 306 305 305 305 305 304 303 303 307 305 302 301 301 301 301 303 308 309 310 312 311 310 311 312 310 310 309 308 308 308 309 308 309 309 308 307 306 307
311 312 312 312 313 312 311 308 307 306 305 305 304 303 303 309 304 301 301 301 302 303 304 306 309 309 310 310 310 310 309 309 308 308 307 307 308 306 309 307 307 308 307 307 307
312 313 314 314 315 315 315 315 312 310 307 306 304 303 305 306 303 301 301 301 302 303 306 303 305 308 308 310 308 308 308 310 309 308 307 305 309 308 308 307 306 306 306 306 306
316 316 316 316 316 316 316 314 313 309 307 307 305 303 305 302 301 301 301 301 302 303 303 304 304 307 308 307 307 308 308 313 308 306 307 305 313 312 306 305 306 306 306 305 305
317 317 317 317 317 317 316 315 312 309 307 306 305 305 305 302 302 301 301 301 301 303 303 304 304 306 305 309 312 310 314 314 310 305 305 306 310 311 305 305 305 306 306 306 306
317 317 317 317 317 317 316 316 311 308 308 307 305 307 304 303 302 302 302 301 302 303 305 306 307 309 308 309 325 316 312 311 309 307 306 306 308 309 309 309 308 308 307 306 306
316 316 317 317 317 317 317 315 312 310 309 306 303 303 303 302 302 302 301 301 303 304 307 306 308 311 310 307 305 306 307 309 310 306 303 307 308 309 309 309 309 308 307 305 304
316 315 315 316 316 317 317 312 307 305 305 304 301 301 301 301 302 302 300 303 304 307 305 306 308 306 305 305 305 306 308 312 309 304 303 306 307 309 309 309 306 306 305 305 304
316 316 315 316 316 316 316 312 311 304 305 304 302 303 302 301 302 303 301 302 304 305 306 307 306 303 304 305 305 307 307 308 306 305 306 305 311 316 309 305 305 304 305 305 305
315 315 316 316 316 315 314 313 311 306 317 312 303 302 301 301 303 301 299 303 304 305 304 306 303 303 304 305 305 307 303 303 304 307 317 304 319 314 314 309 306 305 305 304 304
313 314 316 316 316 316 315 315 312 307 326 307 302 300 300 301 302 302 299 301 304 305 304 307 304 303 305 306 304 306 303 303 304 306 303 309 310 315 309 310 310 308 305 305 305
313 313 314 314 313 314 314 314 312 320 325 307 302 302 301 301 302 301 301 300 301 303 303 303 302 303 305 302 302 303 303 303 303 306 314 307 311 317 315 312 308 307 307 306 305
309 311 314 313 312 312 312 309 319 320 310 312 305 302 302 302 302 302 302 303 306 311 311 305 304 302 302 303 303 303 305 324 324 322 324 304 306 313 313 309 308 306 305 305 305
303 307 311 311 311 309 307 313 318 315 312 302 303 303 305 302 302 302 303 305 303 303 306 312 316 304 303 303 304 305 304 315 321 320 317 301 312 312 307 305 306 307 305 304 303
297 307 310 309 310 308 311 313 314 313 311 307 305 308 307 302 302 302 304 304 302 302 306 309 307 302 302 302 302 304 304 301 308 296 305 313 311 310 309 308 306 304 304 304 304
304 305 306 307 310 309 311 309 309 310 307 309 315 312 316 306 307 306 307 304 302 301 300 303 308 301 301 301 301 302 301 308 309 313 318 320 315 316 314 307 304 304 304 304 303
302 304 305 306 307 308 309 308 309 308 308 311 311 314 312 307 305 310 312 303 301 301 300 301 303 304 301 303 306 302 303 302 303 306 313 317 318 313 317 309 307 305 303 303 303
303 303 303 305 306 305 307 302 306 307 305 306 304 307 308 307 308 309 312 310 301 302 303 302 304 306 305 300 299 301 304 304 308 312 305 303 308 310 306 304 302 303 303 303 302
302 302 301 305 306 306 303 305 305 306 306 306 307 306 305 307 310 307 306 299 300 302 306 302 307 312 310 300 298 300 302 302 302 301 304 307 310 305 303 305 305 306 304 303 302
301 301 300 301 302 305 305 304 305 304 306 305 306 305 303 304 305 309 308 302 299 298 300 302 308 310 312 312 305 302 301 301 302 305 307 307 306 306 307 308 308 308 305 303 301
299 300 300 301 300 302 304 306 305 305 304 304 305 306 305 308 307 304 305 306 301 300 301 305 307 306 306 306 306 305 304 305 302 303 307 308 309 309 308 307 306 304 303 301 299
298 299 299 301 300 301 301 303 303 303 304 303 304 305 306 306 307 305 306 305 306 302 302 301 306 299 301 302 302 303 303 304 303 304 304 304 304 305 304 305 304 303 301 298 298
296 298 299 300 300 300 302 302 302 302 302 303 303 304 304 306 305 306 304 304 305 304 303 302 303 301 307 296 296 303 301 302 303 303 303 304 305 305 304 303 301 301 300 298 295
Wind_Speed
4 5 7 8 8 8 8 7 7 6 6 6 6 6 5 4 3 5 3 5 4 5 4 3 2 3 5 5 4 4 6 7 7 6 1 2 4 2 3 8 8 8 10 3 7
4 5 6 8 10 10 9 8 7 7 7 7 7 6 5 4 2 5 6 6 6 5 2 0 2 4 5 5 5 8 6 4 6 3 3 2 5 8 6 9 13 15 14 11 10
3 4 6 8 10 11 11 10 9 8 8 8 8 7 6 4 0 2 7 6 6 5 2 2 4 4 6 5 7 4 6 7 2 4 4 7 10 11 10 10 17 18 12 16 12
5 6 8 9 10 10 11 11 10 9 8 8 7 7 5 3 3 4 7 7 6 5 1 1 4 4 5 5 5 5 7 6 3 2 3 6 8 11 18 23 15 9 11 12 13
7 8 8 9 11 12 12 11 11 10 9 8 7 5 2 0 1 5 7 7 6 4 2 2 5 5 6 3 4 9 7 5 6 7 10 12 17 17 25 24 20 18 16 16 14
8 9 9 10 12 13 13 13 12 11 11 9 7 4 0 5 3 3 5 6 5 4 4 2 2 4 3 3 6 3 8 11 7 7 9 9 13 4 7 6 10 16 19 17 15
7 8 9 11 12 13 15 16 15 13 10 8 5 2 0 3 2 2 4 4 5 4 3 2 1 3 2 3 2 5 7 7 7 4 3 9 13 16 18 11 10 12 13 14 13
5 7 8 10 12 15 16 16 15 11 8 6 4 0 2 2 1 2 4 4 4 4 2 1 2 1 1 2 3 4 4 4 6 2 2 4 11 7 6 8 11 11 11 13 15
8 9 10 11 12 14 16 18 14 10 6 6 2 3 1 1 1 2 3 2 3 3 3 2 1 1 1 4 6 5 6 6 2 4 5 3 14 3 1 9 16 18 20 22 23
9 10 12 12 13 14 15 16 10 6 9 4 3 3 1 2 3 5 4 4 1 1 2 1 2 4 4 5 2 4 6 3 7 5 6 14 26 25 22 20 25 23 22 22 21
16 15 16 15 15 15 15 11 7 3 10 2 4 4 4 7 7 5 5 2 1 2 2 2 4 7 4 3 4 5 6 11 11 6 7 10 20 26 22 24 25 20 14 12 11
14 14 16 15 17 13 13 6 6 6 7 8 5 3 6 5 3 3 2 2 3 4 3 4 7 4 2 1 2 4 8 6 8 3 4 12 24 27 21 10 6 5 5 10 12
13 13 15 13 13 12 8 6 10 12 6 1 1 1 1 1 1 1 1 1 3 4 6 7 3 4 2 3 5 7 7 6 5 10 8 13 11 8 3 4 6 6 6 9 10
11 11 13 12 9 4 5 8 10 12 4 2 1 1 2 1 3 2 1 1 2 3 3 5 4 4 4 6 4 7 3 1 6 8 3 6 6 10 4 6 7 10 11 11 10
10 8 8 7 5 5 6 8 7 4 5 3 2 2 2 3 3 1 1 1 3 3 3 4 3 4 6 3 4 2 1 3 5 3 4 2 3 7 2 4 7 11 14 14 12
12 8 6 5 4 4 4 3 4 1 7 2 1 1 1 0 2 4 2 1 1 2 4 1 1 2 3 1 2 1 4 4 1 2 3 4 3 7 4 3 5 5 13 15 13
14 11 9 6 4 1 2 2 1 4 3 3 1 2 1 1 1 2 2 4 4 2 5 4 4 3 3 3 3 3 5 3 3 3 2 5 3 11 9 3 2 5 6 7 10
14 11 10 7 7 4 3 1 6 2 4 1 2 2 2 2 2 1 2 4 5 3 2 4 4 5 6 2 2 5 2 3 6 4 4 2 7 4 1 3 6 8 7 7 9
10 10 12 9 10 6 3 4 5 5 2 4 2 4 3 3 2 2 4 2 2 6 4 2 3 4 2 2 3 4 4 3 2 2 3 5 6 13 9 11 11 11 9 11 7
6 8 13 14 12 8 1 6 4 2 3 2 3 3 3 4 3 2 3 3 3 1 0 3 3 2 3 1 2 3 1 2 2 4 6 4 4 10 5 1 4 4 1 2 2
8 6 8 19 15 7 6 6 5 6 7 5 3 2 5 2 2 1 3 2 2 3 4 1 1 3 2 5 1 3 3 4 3 3 4 8 5 1 4 7 3 4 5 6 16
7 4 7 18 8 6 7 6 2 6 8 5 2 4 4 3 3 3 4 3 3 4 3 1 1 3 5 4 2 1 2 4 4 3 4 3 11 11 7 5 3 9 9 15 16
6 7 8 22 6 8 3 4 7 5 7 7 8 8 3 4 3 6 2 3 3 3 3 4 2 3 4 2 3 5 7 7 4 3 11 8 9 5 3 7 14 18 17 14 22
4 2 8 16 13 11 8 7 6 9 15 9 5 5 4 6 9 2 2 1 2 3 3 2 3 6 11 8 3 4 8 11 10 5 9 17 27 26 23 23 21 24 29 25 19
9 5 9 5 12 12 16 6 8 9 10 13 6 15 10 6 8 5 7 4 6 6 5 1 6 6 12 14 13 14 15 15 15 19 11 25 23 25 25 24 28 33 22 22 28
9 5 5 6 13 16 20 17 15 10 10 6 16 12 18 14 11 5 8 7 6 7 7 3 3 1 4 8 9 14 19 18 21 24 24 29 31 27 35 26 23 25 23 25 32
23 22 7 10 11 12 17 20 18 20 14 22 13 15 12 15 19 17 8 7 5 7 9 7 4 4 6 2 3 9 11 19 15 18 19 20 23 19 25 21 25 26 28 24 22
Wind_Direction
20 20 16 19 23 21 20 17 12 11 14 15 14 13 11 18 24 24 342 359 1 350 5 42 48 163 154 188 197 223 247 254 251 242 88 128 263 199 267 257 247 239 263 287 232
358 7 17 12 10 10 11 6 5 1 3 4 4 3 10 10 53 14 353 359 5 2 35 332 200 185 186 189 195 229 254 297 20 323 274 248 271 304 277 253 252 251 250 249 254
5 9 9 12 10 4 1 358 356 355 355 354 353 356 3 2 6 297 348 358 2 4 59 153 184 211 217 193 196 189 253 22 277 300 296 289 278 265 267 268 260 260 264 241 255
14 14 13 11 9 7 0 354 350 346 344 345 348 353 1 27 310 311 344 354 2 6 29 237 227 228 238 221 202 252 248 268 306 294 283 274 297 266 255 252 277 256 261 241 253
25 22 18 13 7 1 357 352 347 341 335 336 340 350 9 326 223 323 349 352 1 0 343 268 242 262 245 241 242 244 277 267 265 268 273 275 265 267 269 263 261 256 247 246 252
23 19 18 12 5 358 352 346 340 334 330 330 333 342 131 238 249 336 352 0 7 26 12 8 313 274 292 247 243 347 283 275 273 269 271 274 274 288 259 227 243 234 241 247 246
11 11 5 2 360 354 348 341 333 328 324 324 326 335 84 176 240 347 8 10 15 30 21 0 192 318 294 255 284 295 294 270 235 262 269 302 271 227 252 239 237 231 237 241 237
344 347 350 351 348 345 343 339 332 328 326 320 324 74 182 219 230 357 7 7 14 13 2 38 109 144 314 275 251 262 258 274 117 283 140 300 279 180 191 218 247 246 244 243 236
319 326 332 337 339 339 339 339 335 334 343 338 325 149 150 126 30 332 8 350 348 358 358 12 52 219 218 261 256 197 291 270 277 47 322 280 291 271 172 249 259 262 262 260 255
297 307 317 324 331 337 342 337 330 344 352 2 70 148 119 245 303 312 318 331 273 345 305 293 249 256 222 231 265 323 292 274 285 36 313 284 273 281 280 276 275 273 268 263 256
299 303 305 308 319 333 345 354 347 324 338 287 293 291 291 295 298 296 297 319 276 207 247 60 263 235 12 342 318 298 282 282 292 32 308 275 284 287 288 282 279 273 260 241 218
295 302 307 314 318 321 343 22 25 329 306 298 294 281 278 286 279 325 307 245 224 235 169 209 240 57 78 141 263 260 288 289 289 15 302 300 294 284 288 264 261 269 199 177 174
307 302 304 312 314 320 328 353 344 341 264 263 247 316 274 301 257 291 18 237 247 224 219 257 72 124 222 227 263 252 255 295 282 319 265 308 272 279 179 210 233 219 199 183 180
313 311 308 304 306 323 329 329 336 342 292 174 111 354 348 336 231 271 155 128 198 256 219 266 109 202 227 252 227 277 46 281 297 337 302 13 287 293 265 244 205 206 207 205 204
309 328 327 341 293 284 288 303 324 3 298 55 72 327 349 308 342 339 169 190 231 170 212 86 179 202 238 265 199 11 348 310 310 296 323 177 229 276 166 228 217 205 209 212 216
287 293 311 330 316 313 313 342 351 90 247 102 108 354 294 354 324 316 261 158 111 206 218 297 119 240 343 97 260 61 275 226 245 168 242 143 226 286 246 146 156 170 204 214 219
270 277 275 279 254 270 354 52 343 215 345 317 38 6 330 332 220 324 283 217 207 150 214 172 197 145 194 225 179 244 280 276 249 217 274 146 212 250 282 169 194 168 177 217 216
258 250 258 256 196 156 100 43 213 224 218 199 243 237 272 344 175 227 263 269 233 254 265 236 231 187 151 265 10 187 297 298 289 287 348 163 240 243 338 345 244 235 234 238 236
246 234 235 232 218 199 197 214 222 215 151 186 184 228 187 188 259 285 223 253 324 224 242 247 182 117 76 344 308 133 204 55 293 142 271 233 263 268 275 230 243 231 250 249 246
211 224 238 219 222 208 182 235 243 249 142 103 226 230 251 180 199 189 209 154 171 201 329 43 276 27 90 222 168 283 30 237 172 282 273 232 262 261 263 86 121 151 176 224 295
203 228 240 211 203 198 219 225 245 225 201 214 237 268 239 251 234 231 281 139 243 160 195 197 248 109 172 198 240 159 227 221 285 241 275 298 268 15 24 21 25 64 356 338 320
210 233 224 189 177 204 211 193 263 214 209 230 210 239 227 209 224 248 251 232 142 172 187 134 229 231 239 96 47 56 297 241 261 214 254 301 265 307 60 72 6 302 294 304 312
226 233 206 186 211 213 206 244 245 205 204 197 212 219 210 215 239 220 200 32 164 210 192 174 193 278 184 178 185 223 195 217 224 263 255 263 263 110 4 307 285 293 278 303 313
234 230 201 212 232 229 200 222 224 221 235 214 225 179 164 216 226 202 226 196 195 210 253 184 206 241 261 317 40 210 207 213 207 234 272 247 282 277 280 277 296 303 316 311 306
224 231 202 208 230 220 230 190 209 212 217 215 239 207 195 217 218 209 229 233 208 198 185 156 250 231 259 277 282 266 263 246 225 238 247 267 264 287 287 298 301 303 303 311 311
225 217 214 241 225 207 220 230 215 225 189 216 228 209 221 227 210 191 216 222 231 175 179 174 250 137 262 247 269 268 259 255 250 255 256 262 271 273 285 301 308 301 301 310 313
237 239 242 240 218 224 218 228 233 217 241 231 219 235 227 231 240 252 283 263 248 181 197 182 202 207 250 84 313 271 242 226 244 243 242 254 261 298 306 311 307 303 304 306 317